User: anonymous   Login
Location: Ahausen
(50.4985°N, 8.2722°E)
Time: 08:54:19
(UTC+00:00)
Language:

METEOR 2-10 DEB - Orbit

View from above orbital plane
View from above orbital plane
View from above satellite
View from above satellite

Ground track
Ground track

The orbit data is extracted from the following two-line orbital elements,

1 38538U 83109F   22318.04243681  .00016087  00000-0  28742-2 0  9999
2 38538  81.1346  71.8182 0059260 307.8632  51.7215 14.65689594 92302
Epoch (UTC): 14 November 2022 01:01:06
Eccentricity: 0.0059260
inclination: 81.1346°
perigee height: 633 km
apogee height: 716 km
right ascension of ascending node: 71.8182°
argument of perigee: 307.8632°
revolutions per day: 14.65689594
mean anomaly at epoch: 51.7215°
orbit number at epoch: 9230

The dashed part of the orbit path shows where the satellite is in the earth's shadow,  

DLR